CZ-6A DEB, 60801

Orbit data source: Space-Track

CZ-6A DEB, 60801 is space debris in LEO originally from a launch on Tue, 06 Aug 2024 UTC launched from the Taiyaun Space Center, China (TSC). Debris objects in space refer to the collection of defunct objects orbiting the Earth. Examples of debris include non-operational satellites, rocket bodies, and fragments generated from explosions, collisions, or faulty payload assembly.

Loading next visibility...
Identifier
60801, 2024-140GC
Orbit
LEO
Country
Flag of CNCN / PRC
Related business
Manufacturer
SAST
Mission
Spacecraft
Bus & Motor
Unknown
Mass
Unknown
Launch date (UTC)
2024-08-06 (2 years ago)
Launch vehicle
Unknown
Launch site
Taiyaun Space Center, China (TSC)
Object type
Payload
Rocket body
Debris
Shape & HBR
Unknown shape, 0.1 m
Radar Cross Section
Medium (>0.1 m² and <1 m²)

Expand to show TLE details & history
Last TLE update: 15 hours ago

TLE from 15 hours ago
0 CZ-6A DEB
1 60801U 24140GC  26171.24545066  .00003815  00000-0  44266-3 0  9997
2 60801  88.9225 260.5395 0164237 169.3612 191.1157 14.75873180 99638
Epoch: 2026-06-20T05:53Z
TLE epoch observation values (Epoch: 2026-06-20T05:53:26.937Z)
Latitude
0.00007°
Longitude
-96.28558°
Altitude
758.749 km
Speed
7.414 km/s
True Right ascension
17h 22m 09s
True Declination
0° 00' 00"
Sunlit
Object was in full shadow at epoch
Visualization orbit readout
Latitude
Unknown
Longitude
Unknown
Altitude
Unknown
Speed
Unknown
Apparent Right ascension
Unknown
Apparent Declination
Unknown
Sunlit
N/A
Visualization observer readout
Local Sidereal Time
07:20:28
Azimuth
Unknown
Elevation
Unknown
Doppler factor
Unknown
Orbital elements
Apogee altitude
754.503 km
Perigee altitude
524 km
Semi-major axis
7,017.389 km
Eccentricity
0.01642
Inclination
88.9225°
RAAN
260.5395°
Arg. of periapsis
169.3612°
True anomaly
190.76004°
Mean anomaly
191.1157°
Eccentric anomaly
190.93716°
Mean motion
3.69215 °/min
Orbital period
97.5 mins
BSTAR
0.00044266
Loading maneuver chart data...
Computing Atmospheric mass density...
Loading historical data...
Loading historical data...
Loading historical data...
Loading historical data...
Loading historical data...
Loading historical data...
Loading historical data...

Documentation

Showing up to 5 results
|